FW9262 Weather Reports


time (UTC)temp
F
wind
direction
speed
knots
gust
knots
rain 1hr
in
rain 24hr
in
rain mn
in
humidity
%
barometer
mb
20260902102348 63 338 0.0 0.0 0.00 0.00 0.00 90 1018.3
20260902101843 63 337 0.0 0.0 0.00 0.00 0.00 90 1018.3
20260902101337 64 336 0.0 0.0 0.00 0.00 0.00 90 1018.0
20260902100837 63 337 0.0 0.0 0.00 0.00 0.00 90 1018.3
20260902100336 63 339 0.0 0.0 0.00 0.00 0.00 89 1018.7
20260902095831 63 346 0.0 0.0 0.00 0.00 0.00 89 1018.7
20260902095326 63 345 0.0 0.0 0.00 0.00 0.00 89 1018.3
20260902094825 63 344 0.0 0.0 0.00 0.00 0.00 89 1018.3
20260902094322 64 347 0.0 0.0 0.00 0.00 0.00 89 1018.3
20260902093821 64 347 0.0 0.0 0.00 0.00 0.00 89 1018.3
20260902093316 64 347 0.0 0.0 0.00 0.00 0.00 89 1018.3
20260902092815 64 341 0.0 0.0 0.00 0.00 0.00 88 1018.3
20260902092311 64 338 0.0 0.0 0.00 0.00 0.00 88 1018.3
20260902091811 64 343 0.0 0.0 0.00 0.00 0.00 88 1018.7
20260902091307 64 0 0.0 0.0 0.00 0.00 0.00 88 1018.3
20260902090803 64 358 0.0 0.0 0.00 0.00 0.00 88 1018.3
20260902090302 64 354 0.0 0.0 0.00 0.00 0.00 88 1018.3
20260902085801 65 352 0.0 0.0 0.00 0.00 0.00 88 1018.3
20260902085257 65 328 0.0 0.0 0.00 0.00 0.00 88 1018.0
20260902084753 65 355 0.0 0.0 0.00 0.00 0.00 88 1018.3
20260902084248 65 330 0.0 0.0 0.00 0.00 0.00 87 1018.3
20260902083744 65 357 0.0 0.9 0.00 0.00 0.00 87 1018.3
20260902083238 65 350 0.0 0.0 0.00 0.00 0.00 87 1018.3
20260902082733 65 36 0.9 0.9 0.00 0.00 0.00 87 1018.3
20260902082230 65 1 0.0 0.9 0.00 0.00 0.00 86 1018.7
20260902081726 65 27 0.9 1.7 0.00 0.00 0.00 86 1018.3
20260902081221 65 6 0.9 1.7 0.00 0.00 0.00 87 1018.7
20260902080716 65 358 0.9 1.7 0.00 0.00 0.00 87 1018.3
20260902080213 65 28 1.7 1.7 0.00 0.00 0.00 87 1018.3
20260902075712 65 24 0.0 1.7 0.00 0.00 0.00 87 1018.3
20260902075209 65 24 0.9 0.9 0.00 0.00 0.00 87 1018.3
20260902074708 65 3 0.0 0.0 0.00 0.00 0.00 86 1018.3
20260902074203 65 351 0.0 0.0 0.00 0.00 0.00 86 1018.3
20260902073659 65 1 0.0 0.0 0.00 0.00 0.00 86 1018.3
20260902073155 65 2 0.0 0.0 0.00 0.00 0.00 86 1018.3
20260902072651 65 3 0.0 0.0 0.00 0.00 0.00 86 1018.0
20260902072147 65 358 0.0 0.0 0.00 0.00 0.00 86 1018.0
20260902071642 65 358 0.0 0.0 0.00 0.00 0.00 86 1018.0
20260902071138 65 356 0.0 0.0 0.00 0.00 0.00 86 1018.0
20260902070634 65 352 0.0 0.0 0.00 0.00 0.00 86 1018.0
20260902070133 65 358 0.0 0.0 0.00 0.00 0.00 86 1018.0
20260902065632 65 340 0.0 0.0 0.00 0.00 0.00 86 1018.0
20260902065128 65 354 0.0 0.0 0.00 0.00 0.00 85 1018.0
20260902064623 65 354 0.0 0.0 0.00 0.00 0.00 85 1018.0
20260902064119 65 357 0.0 0.0 0.00 0.00 0.00 85 1018.0
20260902063614 65 353 0.0 0.0 0.00 0.00 0.00 85 1018.0
20260902063109 65 349 0.0 0.0 0.00 0.00 0.00 85 1018.0
20260902062607 66 351 0.0 0.0 0.00 0.00 0.00 84 1018.0
20260902062103 65 354 0.0 0.0 0.00 0.00 0.00 84 1018.0
20260902061603 66 341 0.0 0.0 0.00 0.00 0.00 83 1018.0
20260902061059 66 344 0.0 0.0 0.00 0.00 0.00 82 1017.6
20260902060555 66 343 0.0 0.0 0.00 0.00 0.00 82 1017.6
20260902060051 67 339 0.0 0.0 0.00 0.00 0.00 82 1018.0
20260902055546 67 336 0.0 0.0 0.00 0.00 0.00 82 1017.6
20260902055042 67 339 0.0 0.0 0.00 0.00 0.00 82 1017.6
20260902054537 66 333 0.0 0.0 0.00 0.00 0.00 82 1017.6
20260902054032 67 345 0.0 0.0 0.00 0.00 0.00 81 1017.6
20260902053527 67 341 0.0 0.0 0.00 0.00 0.00 82 1018.0
20260902053027 67 329 0.0 0.9 0.00 0.00 0.00 82 1017.6
20260902052521 66 337 0.0 0.9 0.00 0.00 0.00 83 1017.6
20260902052017 66 340 0.0 0.0 0.00 0.00 0.00 82 1017.6
20260902051517 66 347 0.0 0.0 0.00 0.00 0.00 82 1017.6
20260902051016 66 350 0.0 0.0 0.00 0.00 0.00 82 1017.6
20260902050510 66 354 0.0 0.0 0.00 0.00 0.00 82 1018.0
20260902050008 66 351 0.0 0.0 0.00 0.00 0.00 82 1017.6
20260902045501 66 324 0.0 0.0 0.00 0.00 0.00 81 1017.6
20260902044958 66 341 0.0 0.0 0.00 0.00 0.00 81 1017.6
20260902044452 66 350 0.0 0.0 0.00 0.00 0.00 81 1017.6
20260902043948 66 349 0.0 0.0 0.00 0.00 0.00 81 1017.6
20260902043443 66 353 0.0 0.0 0.00 0.00 0.00 81 1017.3
20260902042938 66 344 0.0 0.0 0.00 0.00 0.00 80 1017.3
20260902042437 66 343 0.0 0.0 0.00 0.00 0.00 80 1017.3
20260902041933 66 342 0.0 0.0 0.00 0.00 0.00 80 1017.3
20260902041427 67 338 0.0 0.0 0.00 0.00 0.00 80 1017.0
20260902040926 67 340 0.0 0.0 0.00 0.00 0.00 79 1017.3
20260902040421 67 343 0.0 0.0 0.00 0.00 0.00 79 1017.3
20260902035921 67 323 0.0 0.0 0.00 0.00 0.00 79 1017.0
20260902035416 68 339 0.0 0.0 0.00 0.00 0.00 78 1017.0
20260902034915 68 333 0.0 0.0 0.00 0.00 0.00 78 1017.0
20260902034410 68 338 0.0 0.0 0.00 0.00 0.00 78 1016.6
20260902033909 68 335 0.0 0.0 0.00 0.00 0.00 78 1017.0
20260902033403 68 334 0.0 0.0 0.00 0.00 0.00 77 1016.6
20260902032902 69 337 0.0 0.9 0.00 0.00 0.00 77 1017.0
20260902032356 69 323 0.0 0.9 0.00 0.00 0.00 76 1016.6
20260902031851 69 317 0.0 0.9 0.00 0.00 0.00 76 1016.6
20260902031347 69 301 0.9 0.9 0.00 0.00 0.00 75 1016.6
20260902030843 69 337 0.0 1.7 0.00 0.00 0.00 75 1016.6
20260902030337 69 308 1.7 2.6 0.00 0.00 0.00 75 1017.0
20260902025836 69 333 0.9 2.6 0.00 0.00 0.00 75 1016.6
20260902025332 69 304 1.7 1.7 0.00 0.00 0.00 75 1016.6
20260902024826 69 285 1.7 3.5 0.00 0.00 0.00 75 1016.6
20260902024322 69 291 0.9 2.6 0.00 0.00 0.00 75 1016.6
20260902023817 69 247 0.9 2.6 0.00 0.00 0.00 74 1016.3
20260902023313 70 285 0.9 2.6 0.00 0.00 0.00 73 1016.3
20260902022811 70 278 1.7 1.7 0.00 0.00 0.00 73 1016.6
20260902022307 70 328 0.0 1.7 0.00 0.00 0.00 72 1016.3
20260902021803 70 342 0.0 1.7 0.00 0.00 0.00 72 1016.3
20260902021257 70 274 0.0 0.9 0.00 0.00 0.00 72 1016.3
20260902020753 70 330 0.0 1.7 0.00 0.00 0.00 72 1016.0
20260902020249 70 284 1.7 3.5 0.00 0.00 0.00 73 1016.3
20260902015744 70 320 1.7 3.5 0.00 0.00 0.00 73 1016.6
20260902015240 70 197 1.7 3.5 0.00 0.00 0.00 75 1016.3
20260902014736 70 272 0.9 2.6 0.00 0.00 0.00 75 1016.6
20260902014233 70 343 0.0 2.6 0.00 0.00 0.00 75 1016.3
20260902013730 71 262 1.7 3.5 0.00 0.00 0.00 74 1016.3
20260902013226 71 318 1.7 5.2 0.00 0.00 0.00 74 1016.6
20260902012721 71 271 2.6 3.5 0.00 0.00 0.00 75 1016.6
20260902012218 71 307 0.0 2.6 0.00 0.00 0.00 75 1016.6
20260902011713 71 297 0.9 1.7 0.00 0.00 0.00 76 1016.6
20260902011212 71 220 1.7 5.2 0.00 0.00 0.00 75 1016.6
20260902010706 72 303 0.0 1.7 0.00 0.00 0.00 76 1016.6
20260902010202 72 289 1.7 3.5 0.00 0.00 0.00 75 1016.6
20260902005700 72 255 1.7 1.7 0.00 0.00 0.00 74 1016.6
20260902005156 72 310 1.7 3.5 0.00 0.00 0.00 74 1016.6
20260902004655 72 251 2.6 3.5 0.00 0.00 0.00 73 1016.6
20260902004150 73 56 1.7 6.1 0.00 0.00 0.00 73 1016.6
20260902003646 73 232 2.6 3.5 0.00 0.00 0.00 72 1016.6
20260902003142 73 222 3.5 5.2 0.00 0.00 0.00 72 1016.6
20260902002636 73 297 2.6 2.6 0.00 0.00 0.00 72 1016.6
20260902002131 73 308 1.7 2.6 0.00 0.00 0.00 72 1017.0
20260902001626 75 266 4.3 6.1 0.00 0.00 0.00 69 1017.0
20260902001121 75 255 1.7 2.6 0.00 0.00 0.00 70 1016.6
20260902000616 76 213 3.5 3.5 0.00 0.00 0.00 68 1016.6
20260902000111 75 251 0.9 3.5 0.00 0.00 0.00 69 1016.6
20260901235610 76 290 4.3 6.1 0.00 0.00 0.00 66 1017.0
20260901235106 75 317 3.5 3.5 0.00 0.00 0.00 69 1017.0
20260901234605 75 252 6.1 7.8 0.00 0.00 0.00 69 1016.6
20260901234100 76 252 3.5 5.2 0.00 0.00 0.00 68 1017.0
20260901233601 76 227 1.7 3.5 0.00 0.00 0.00 67 1017.0
20260901233057 76 324 2.6 2.6 0.00 0.00 0.00 67 1017.0
20260901232552 76 222 4.3 6.1 0.00 0.00 0.00 68 1017.0
20260901232047 75 329 1.7 2.6 0.00 0.00 0.00 68 1017.0
20260901231543 76 256 4.3 6.1 0.00 0.00 0.00 68 1017.3
20260901231039 76 212 1.7 2.6 0.00 0.00 0.00 67 1017.0
20260901230540 77 286 2.6 3.5 0.00 0.00 0.00 67 1017.0
20260901230034 77 195 2.6 6.1 0.00 0.00 0.00 67 1017.3
20260901225529 76 264 0.9 6.1 0.00 0.00 0.00 69 1017.0
20260901225029 76 272 1.7 7.8 0.00 0.00 0.00 68 1017.0
20260901224525 76 300 1.7 5.2 0.00 0.00 0.00 68 1017.0
20260901224021 75 320 0.9 5.2 0.00 0.00 0.00 68 1017.0
20260901223516 76 280 2.6 6.1 0.00 0.00 0.00 67 1017.3
20260901223012 77 289 2.6 3.5 0.00 0.00 0.00 67 1017.3
20260901222508 77 280 0.9 2.6 0.00 0.00 0.00 66 1017.3
20260901222004 77 267 3.5 7.0 0.00 0.00 0.00 66 1017.3
20260901221459 78 243 3.5 6.1 0.00 0.00 0.00 65 1017.0
20260901220954 78 234 3.5 6.1 0.00 0.00 0.00 64 1017.3
20260901220454 78 282 2.6 6.1 0.00 0.00 0.00 65 1017.3
20260901215952 77 284 0.9 3.5 0.00 0.00 0.00 65 1017.6
20260901215451 76 345 1.7 6.1 0.00 0.00 0.00 66 1017.3
20260901214950 77 197 3.5 6.1 0.00 0.00 0.00 64 1017.6
20260901214449 77 262 1.7 6.1 0.00 0.00 0.00 66 1017.6
20260901213944 77 289 1.7 3.5 0.00 0.00 0.00 64 1017.6
20260901213438 78 161 3.5 6.1 0.00 0.00 0.00 63 1017.6
20260901212938 78 224 1.7 5.2 0.00 0.00 0.00 64 1017.3
20260901212433 77 255 1.7 6.1 0.00 0.00 0.00 63 1017.6
20260901211930 78 244 3.5 5.2 0.00 0.00 0.00 61 1017.6
20260901211425 78 326 2.6 5.2 0.00 0.00 0.00 61 1017.6
20260901210921 77 214 2.6 3.5 0.00 0.00 0.00 61 1017.6
20260901210417 76 89 5.2 7.8 0.00 0.00 0.00 63 1017.6
20260901205913 78 257 3.5 7.0 0.00 0.00 0.00 61 1018.0
20260901205407 78 263 3.5 6.1 0.00 0.00 0.00 62 1017.6
20260901204902 79 246 2.6 5.2 0.00 0.00 0.00 61 1018.0
20260901204358 78 239 1.7 2.6 0.00 0.00 0.00 61 1018.0
20260901203858 78 148 1.7 3.5 0.00 0.00 0.00 63 1018.0
20260901203352 77 336 0.9 6.1 0.00 0.00 0.00 64 1018.0
20260901202847 77 234 2.6 6.1 0.00 0.00 0.00 64 1018.3
20260901202342 77 297 1.7 2.6 0.00 0.00 0.00 65 1018.0
20260901201839 76 258 3.5 5.2 0.00 0.00 0.00 67 1018.3
20260901201338 76 292 1.7 3.5 0.00 0.00 0.00 67 1018.3
20260901200832 76 187 2.6 3.5 0.00 0.00 0.00 67 1018.7
20260901200327 76 258 2.6 3.5 0.00 0.00 0.00 66 1018.3
20260901195826 77 307 1.7 5.2 0.00 0.00 0.00 67 1018.7
20260901195319 76 276 1.7 7.8 0.00 0.00 0.00 67 1018.3
20260901194815 77 254 2.6 5.2 0.00 0.00 0.00 66 1018.7
20260901194309 77 209 1.7 2.6 0.00 0.00 0.00 65 1018.3
20260901193806 76 257 2.6 5.2 0.00 0.00 0.00 67 1018.7
20260901193304 76 94 2.6 5.2 0.00 0.00 0.00 68 1018.7
20260901192759 76 226 2.6 5.2 0.00 0.00 0.00 68 1018.7
20260901192255 76 266 1.7 2.6 0.00 0.00 0.00 68 1018.7
20260901191750 77 305 2.6 7.0 0.00 0.00 0.00 68 1018.7
20260901191247 77 279 2.6 3.5 0.00 0.00 0.00 67 1018.7
20260901190742 77 291 1.7 3.5 0.00 0.00 0.00 67 1018.7
20260901190242 76 313 1.7 3.5 0.00 0.00 0.00 68 1018.7
20260901185740 77 262 2.6 3.5 0.00 0.00 0.00 67 1018.7
20260901185239 76 302 0.9 2.6 0.00 0.00 0.00 69 1018.7
20260901184735 76 29 0.9 2.6 0.00 0.00 0.00 69 1018.7
20260901184230 76 294 1.7 3.5 0.00 0.00 0.00 68 1018.7
20260901183726 76 302 2.6 3.5 0.00 0.00 0.00 69 1018.7
20260901183225 76 149 0.9 2.6 0.00 0.00 0.00 69 1018.7
20260901182722 75 268 2.6 3.5 0.00 0.00 0.00 70 1018.7
20260901182220 76 211 1.7 1.7 0.00 0.00 0.00 68 1018.3
20260901181716 76 295 2.6 5.2 0.00 0.00 0.00 68 1018.7
20260901181215 75 320 2.6 2.6 0.00 0.00 0.00 70 1018.7
20260901180715 75 290 1.7 2.6 0.00 0.00 0.00 69 1018.7
20260901180209 75 197 1.7 5.2 0.00 0.00 0.00 70 1018.7
20260901175708 75 272 2.6 5.2 0.00 0.00 0.00 70 1018.7
20260901175208 76 216 2.6 3.5 0.00 0.00 0.00 69 1018.7
20260901174703 75 239 0.9 1.7 0.00 0.00 0.00 70 1018.7
20260901174159 74 192 0.9 2.6 0.00 0.00 0.00 72 1018.7
20260901173655 74 242 0.9 2.6 0.00 0.00 0.00 72 1018.7
20260901173150 74 280 0.9 2.6 0.00 0.00 0.00 72 1018.7
20260901172646 75 167 2.6 2.6 0.00 0.00 0.00 70 1018.7
20260901172144 76 273 1.7 2.6 0.00 0.00 0.00 70 1018.7
20260901171643 75 330 1.7 5.2 0.00 0.00 0.00 71 1018.7
20260901171143 76 230 1.7 2.6 0.00 0.00 0.00 68 1018.7
20260901170643 75 345 0.0 0.9 0.00 0.00 0.00 70 1018.3
20260901170137 74 237 0.9 2.6 0.00 0.00 0.00 71 1018.7
20260901165636 73 263 1.7 2.6 0.00 0.00 0.00 72 1018.3
20260901165131 73 251 1.7 2.6 0.00 0.00 0.00 73 1018.3
20260901164628 73 272 0.9 1.7 0.00 0.00 0.00 75 1018.3
20260901164122 73 202 1.7 2.6 0.00 0.00 0.00 75 1018.7
20260901163618 73 207 0.0 0.9 0.00 0.00 0.00 74 1018.3
20260901163117 72 296 1.7 1.7 0.00 0.00 0.00 76 1018.3
20260901162612 72 345 0.9 1.7 0.00 0.00 0.00 76 1018.7
20260901162106 72 328 0.0 1.7 0.00 0.00 0.00 76 1018.3
20260901161605 72 264 1.7 1.7 0.00 0.00 0.00 74 1018.3
20260901161104 73 349 0.0 0.0 0.00 0.00 0.00 74 1018.3
20260901160601 73 359 0.0 1.7 0.00 0.00 0.00 75 1018.7
20260901160056 72 342 0.0 0.0 0.00 0.00 0.00 74 1018.7
20260901155555 72 342 0.0 0.9 0.00 0.00 0.00 76 1018.7
20260901155051 71 353 0.0 0.9 0.00 0.00 0.00 76 1018.7
20260901154550 71 334 0.0 1.7 0.00 0.00 0.00 76 1018.3
20260901154046 71 338 0.0 1.7 0.00 0.00 0.00 76 1018.3
20260901153546 72 316 0.0 0.9 0.00 0.00 0.00 75 1018.3
20260901153040 71 0 0.0 0.0 0.00 0.00 0.00 78 1018.3
20260901152535 70 358 0.0 0.9 0.00 0.00 0.00 79 1018.3
20260901152034 70 20 0.9 1.7 0.00 0.00 0.00 79 1018.3
20260901151529 70 358 0.0 0.9 0.00 0.00 0.00 79 1018.3
20260901151029 70 339 0.0 0.0 0.00 0.00 0.00 79 1018.3
20260901150527 69 338 0.0 0.9 0.00 0.00 0.00 80 1018.3
20260901150026 70 347 0.0 1.7 0.00 0.00 0.00 79 1018.0
20260901145524 70 343 0.0 0.9 0.00 0.00 0.00 79 1018.0
20260901145019 70 8 0.0 0.9 0.00 0.00 0.00 79 1018.0
20260901144514 70 350 0.0 0.9 0.00 0.00 0.00 80 1018.0
20260901144009 68 357 0.0 0.9 0.00 0.00 0.00 82 1017.6
20260901143505 68 351 0.9 0.9 0.00 0.00 0.00 86 1017.6
20260901143002 67 9 0.0 0.9 0.00 0.00 0.00 88 1017.6
20260901142501 66 1 0.9 0.9 0.00 0.00 0.00 90 1017.6
20260901141957 65 0 0.0 0.9 0.00 0.00 0.00 92 1017.6
20260901141456 64 0 0.0 0.0 0.00 0.00 0.00 93 1017.6
20260901140952 64 350 0.0 0.0 0.00 0.00 0.00 94 1017.6
20260901140449 63 343 0.0 0.9 0.00 0.00 0.00 94 1017.3
20260901135944 63 344 0.0 0.0 0.00 0.00 0.00 94 1017.6
20260901135438 62 344 0.0 0.9 0.00 0.00 0.00 94 1017.6
20260901134935 62 351 0.0 0.0 0.00 0.00 0.00 94 1017.0
20260901134430 62 349 0.0 0.0 0.00 0.00 0.00 94 1017.3
20260901133930 61 339 0.0 0.0 0.00 0.00 0.00 94 1017.0
20260901133429 61 339 0.0 0.0 0.00 0.00 0.00 94 1017.3
20260901132928 61 341 0.0 0.0 0.00 0.00 0.00 94 1017.3
20260901132423 61 338 0.0 0.0 0.00 0.00 0.00 94 1017.3
20260901131922 61 338 0.0 0.0 0.00 0.00 0.00 94 1017.3
20260901131421 61 336 0.0 0.0 0.00 0.00 0.00 94 1017.3
20260901130918 61 348 0.0 0.0 0.00 0.00 0.00 93 1017.3
20260901130417 61 343 0.0 0.0 0.00 0.00 0.00 93 1017.0
20260901125915 61 339 0.0 0.0 0.00 0.00 0.00 93 1017.0
20260901125414 61 330 0.0 0.0 0.00 0.00 0.00 93 1017.0
20260901124909 61 339 0.0 0.0 0.00 0.00 0.00 93 1017.0
20260901124404 61 339 0.0 0.0 0.00 0.00 0.00 93 1017.0
20260901123859 61 333 0.0 0.0 0.00 0.00 0.00 93 1017.0
20260901123354 61 339 0.0 0.0 0.00 0.00 0.00 93 1017.0
20260901122852 61 340 0.0 0.0 0.00 0.00 0.00 93 1017.0
20260901122347 61 333 0.0 0.0 0.00 0.00 0.00 93 1017.0
20260901121846 61 341 0.0 0.0 0.00 0.00 0.00 93 1017.0
20260901121341 62 341 0.0 0.0 0.00 0.00 0.00 93 1017.0
20260901120836 62 340 0.0 0.0 0.00 0.00 0.00 93 1017.0
20260901120331 62 343 0.0 0.0 0.00 0.00 0.00 93 1017.0
20260901115827 62 339 0.0 0.0 0.00 0.00 0.00 93 1017.0
20260901115321 62 354 0.0 0.0 0.00 0.00 0.00 93 1017.0
20260901114820 62 346 0.0 0.0 0.00 0.00 0.00 93 1017.0
20260901114314 62 340 0.0 0.0 0.00 0.00 0.00 93 1017.0
20260901113813 62 336 0.0 0.0 0.00 0.00 0.00 93 1016.6
20260901113313 62 340 0.0 0.0 0.00 0.00 0.00 93 1017.0
20260901112807 62 340 0.0 0.0 0.00 0.00 0.00 93 1017.0
20260901112305 63 342 0.0 0.0 0.00 0.00 0.00 92 1017.0
20260901111756 62 342 0.0 0.0 0.00 0.00 0.00 92 1017.0
20260901111255 62 339 0.0 0.0 0.00 0.00 0.00 92 1016.6
20260901110754 62 340 0.0 0.0 0.00 0.00 0.00 92 1017.0
20260901110250 63 346 0.0 0.0 0.00 0.00 0.00 92 1017.0
20260901105746 63 346 0.0 0.0 0.00 0.00 0.00 92 1016.6
20260901105246 63 341 0.0 0.0 0.00 0.00 0.00 92 1017.0
20260901104742 63 346 0.0 0.0 0.00 0.00 0.00 92 1017.0
20260901104237 63 350 0.0 0.0 0.00 0.00 0.00 92 1017.0
20260901103737 63 341 0.0 0.0 0.00 0.00 0.00 92 1017.0
20260901103232 63 348 0.0 0.9 0.00 0.00 0.00 92 1017.0